Roros Lufthavn, Norway

5:04 PM CET on December 10, 2019 (GMT +0100)
Roros

Weather History for ENRO - October, 2019

Change the Weather History Date:

Monday, October 14, 2019

  Actual Average Record
Temperature  
Mean Temperature 30 °F -  
Max Temperature 42 °F 39 °F 62 °F (2018)
Min Temperature 17 °F 29 °F 8 °F (2016)
Degree Days  
Heating Degree Days 36    
Moisture  
Dew Point 26 °F    
Average Humidity 92    
Maximum Humidity 100    
Minimum Humidity 65    
Precipitation  
Precipitation 0.00 in - - ()
Sea Level Pressure  
Sea Level Pressure 29.77 in    
Wind  
Wind Speed 2 mph ()    
Max Wind Speed 7 mph    
Max Gust Speed -    
Visibility 6.1 miles    
Events Fog , Snow    
Averages and records for this station are not official NWS values.
T = Trace of Precipitation, MM = Missing Value Source: Averaged Metar Reports

Daily Weather History Graph

Daily Weather History Graph

Search for Another Location

Airport or City:

Astronomy

Oct. 14, 2019 Rise Set
Actual Time 7:56 AM CEST 6:03 PM CEST
Civil Twilight 7:10 AM CEST 6:49 PM CEST
Nautical Twilight 6:18 AM CEST 7:41 PM CEST
Astronomical Twilight 5:24 AM CEST 8:34 PM CEST
Moon 6:47 PM CEST (10/14) 8:01 AM CEST (10/14)
Length of Visible Light 11h 38m
Length of Day
10h 07m
Full, 100% of the Moon is Illuminated
Oct 14
Full
Oct 21
Last Quarter
Oct 28
New
Nov 4
First Quarter
Nov 12
Full

Hourly Weather History & Observations

Time (CEST) Temp. Windchill Dew Point Humidity Pressure Visibility Wind Dir Wind Speed Gust Speed Precip Events Conditions
12:20 AM 19.4 °F - 19.4 °F 100% 29.71 in 6.2 mi Variable 1.2 mph - N/A   Unknown
12:50 AM - - - N/A% 29.71 in 6.2 mi Variable 2.3 mph - N/A   Unknown
1:20 AM 17.6 °F - 17.6 °F 100% 29.71 in 6.2 mi Calm Calm - N/A   Partly Cloudy
1:50 AM 17.6 °F - 17.6 °F 100% 29.71 in 6.2 mi Variable 1.2 mph - N/A   Partly Cloudy
2:20 AM 17.6 °F - 17.6 °F 100% 29.68 in 6.2 mi SW 2.3 mph - N/A   Partly Cloudy
2:50 AM 17.6 °F - 17.6 °F 100% 29.68 in 6.2 mi Variable 2.3 mph - N/A   Mostly Cloudy
3:20 AM 19.4 °F - 19.4 °F 100% 29.68 in 6.2 mi Variable 1.2 mph - N/A Snow Light Snow Showers
4:20 AM 21.2 °F - 21.2 °F 100% 29.68 in 6.2 mi Variable 1.2 mph - N/A   Overcast
4:50 AM 21.2 °F - 21.2 °F 100% 29.68 in 6.2 mi Calm Calm - N/A   Overcast
5:50 AM 21.2 °F 16.4 °F 21.2 °F 100% 29.65 in 6.2 mi NW 3.5 mph - N/A   Mostly Cloudy
6:20 AM 21.2 °F 16.4 °F 21.2 °F 100% 29.65 in 6.2 mi West 3.5 mph - N/A   Mostly Cloudy
6:50 AM 23.0 °F - 23.0 °F 100% 29.68 in 6.2 mi Variable 2.3 mph - N/A   Mostly Cloudy
7:20 AM 23.0 °F - 23.0 °F 100% 29.68 in 6.2 mi Variable 1.2 mph - N/A   Mostly Cloudy
7:50 AM 23.0 °F - 23.0 °F 100% 29.68 in 6.2 mi Variable 1.2 mph - N/A   Mostly Cloudy
8:20 AM 23.0 °F - 23.0 °F 100% 29.68 in 6.2 mi Variable 2.3 mph - N/A   Scattered Clouds
8:50 AM 24.8 °F - 24.8 °F 100% 29.68 in 6.2 mi Variable 1.2 mph - N/A   Mostly Cloudy
9:20 AM 24.8 °F - 24.8 °F 100% 29.71 in 6.2 mi Variable 2.3 mph - N/A   Scattered Clouds
9:50 AM 26.6 °F - 26.6 °F 100% 29.71 in 6.2 mi Calm Calm - N/A   Mostly Cloudy
10:20 AM 28.4 °F - 28.4 °F 100% 29.71 in 6.2 mi Variable 1.2 mph - N/A   Mostly Cloudy
10:50 AM 30.2 °F - 30.2 °F 100% 29.71 in 6.2 mi Calm Calm - N/A   Mostly Cloudy
11:20 AM 32.0 °F - 32.0 °F 100% 29.74 in 6.2 mi Variable 2.3 mph - N/A   Mostly Cloudy
11:50 AM 33.8 °F - 33.8 °F 100% 29.74 in 6.2 mi Variable 1.2 mph - N/A   Mostly Cloudy
12:20 PM 35.6 °F - 32.0 °F 87% 29.74 in 6.2 mi Variable 1.2 mph - N/A   Mostly Cloudy
12:50 PM 37.4 °F - 32.0 °F 81% 29.77 in 6.2 mi Variable 2.3 mph - N/A   Mostly Cloudy
1:20 PM 37.4 °F - 32.0 °F 81% 29.77 in 6.2 mi Variable 2.3 mph - N/A   Mostly Cloudy
1:50 PM 39.2 °F 37.0 °F 32.0 °F 75% 29.77 in 6.2 mi SSW 3.5 mph - N/A   Mostly Cloudy
2:20 PM 41.0 °F 39.0 °F 32.0 °F 70% 29.77 in 6.2 mi SSW 3.5 mph - N/A   Mostly Cloudy
2:50 PM 41.0 °F - 33.8 °F 76% 29.77 in 6.2 mi Variable 2.3 mph - N/A   Mostly Cloudy
3:20 PM 41.0 °F 38.0 °F 32.0 °F 70% 29.80 in 6.2 mi West 4.6 mph - N/A   Partly Cloudy
3:50 PM 42.8 °F 39.3 °F 32.0 °F 66% 29.80 in 6.2 mi SW 5.8 mph - N/A   Partly Cloudy
4:20 PM 42.8 °F 38.6 °F 32.0 °F 66% 29.80 in 6.2 mi WSW 6.9 mph - N/A   Partly Cloudy
4:50 PM 41.0 °F 37.1 °F 30.2 °F 65% 29.80 in 6.2 mi SW 5.8 mph - N/A   Partly Cloudy
5:20 PM 41.0 °F 39.0 °F 30.2 °F 65% 29.80 in 6.2 mi SW 3.5 mph - N/A   Partly Cloudy
5:50 PM 35.6 °F - 30.2 °F 81% 29.83 in - Variable 2.3 mph - N/A   Clear
7:20 PM 28.4 °F - 26.6 °F 93% 29.86 in - Variable 2.3 mph - N/A   Clear
7:50 PM 24.8 °F - 24.8 °F 100% 29.89 in 6.2 mi Variable 1.2 mph - N/A   Unknown
8:20 PM 26.6 °F - 26.6 °F 100% 29.89 in 6.2 mi Variable 2.3 mph - N/A   Unknown
8:50 PM 24.8 °F - 24.8 °F 100% 29.89 in 6.2 mi Variable 1.2 mph - N/A   Unknown
9:20 PM 23.0 °F - 23.0 °F 100% 29.89 in 6.2 mi Variable 1.2 mph - N/A   Unknown
9:50 PM 23.0 °F - 23.0 °F 100% 29.92 in 6.2 mi Calm Calm - N/A   Unknown
10:20 PM 21.2 °F - 21.2 °F 100% 29.92 in 6.2 mi Variable 1.2 mph - N/A   Unknown
10:50 PM 21.2 °F - 21.2 °F 100% 29.92 in 6.2 mi SE 2.3 mph - N/A   Unknown
11:20 PM 21.2 °F - 21.2 °F 100% 29.92 in 0.6 mi Variable 2.3 mph - N/A   Mist
11:50 PM 21.2 °F - 21.2 °F 100% 29.92 in 6.2 mi Calm Calm - N/A Fog Light Freezing Fog